Tracking 18673 objects as of 25-June-2017
HD Live streaming from Space Station
objects crossing your sky now

COSMOS 1860

Track COSMOS 1860 now!
10-day predictions
COSMOS 1860 is classified as:


NORAD ID: 18122
Int'l Code: 1987-052A
Perigee: 911.3 km
Apogee: 996.8 km
Inclination: 65.0 °
Period: 104.0 minutes
Semi major axis: 7325 km
RCS: 2.8634 m2 (large)
Launch date: June 18, 1987
Source: Commonwealth of Independent States (former USSR) (CIS)
Launch site: TYURATAM MISSILE AND SPACE COMPLEX (TTMTR)
Your satellite tracking list
Your tracking list is empty





NASA's NSSDC Master Catalog

Two Line Element Set (TLE):
1 18122U 87052A   17176.26628792 -.00000064 +00000-0 +21533-4 0  9999
2 18122 065.0100 249.5357 0058402 220.6188 139.0509 13.84805268518768
Source of the keplerian elements: AFSPC